Regional Weather Roundup
Issued by NWS

Home | Current Version | Previous Version | Graphics & Text | Print | Product List | Glossary On
Versions: 1 2 3 4 5 6 7 8 9 10 11 12 13 14 15 16 17 18 19 20 21 22 23 24 25 26 27 28 29 30 31 32 33 34 35 36 37 38 39 40 41 42 43 44 45 46 47 48 49 50
000
ASUS43 KBIS 280602
RWRND

NORTH DAKOTA REGIONAL WEATHER ROUNDUP
NATIONAL WEATHER SERVICE BISMARCK ND
100 AM CDT TUE JUL 28 2015

NOTE: "FAIR" INDICATES FEW OR NO CLOUDS BELOW 12,000 FEET WITH NO
SIGNIFICANT WEATHER AND/OR OBSTRUCTIONS TO VISIBILITY.


NDZ001>003-009>011-017-280700-
NORTHWEST NORTH DAKOTA

CITY           SKY/WX    TMP DP  RH WIND       PRES   REMARKS
WILLISTON      CLOUDY    63  59  87 W14G22    29.58F
6HR MIN TEMP:  63; 6HR MAX TEMP:  91; 6HR PCP:  0.33;

MINOT          LGT RAIN  72  61  68 SW29G39   29.58S
MINOT AFB      LGT RAIN  76  65  69 SW21G29   29.57F
$$

NDZ018>021-031>035-040>046-280700-
SOUTHWEST NORTH DAKOTA

CITY           SKY/WX    TMP DP  RH WIND       PRES   REMARKS
BISMARCK       CLOUDY    70  62  76 S10       29.59F
6HR MIN TEMP:  70; 6HR MAX TEMP:  88; 6HR PCP: TRACE;

DICKINSON      MOCLDY    61  56  83 W18       29.71R
GARRISON         N/A     70  62  76 W8        29.64R
6HR MIN TEMP:  70; 6HR MAX TEMP:  84;

HETTINGER ARPT MOCLDY    61  56  83 W21G29    29.76R
$$

NDZ004>008-012>016-024-026-027-054-280700-
NORTHEAST NORTH DAKOTA

CITY           SKY/WX    TMP DP  RH WIND       PRES   REMARKS
GRAND FORKS    PTCLDY    75  70  84 SE10      29.70F
DEVILS LAKE    MOCLDY    77  68  73 SE15G21   29.65F
$$

NDZ022-023-025-028>030-036>039-047>053-280700-
SOUTHEAST NORTH DAKOTA

CITY           SKY/WX    TMP DP  RH WIND       PRES   REMARKS
FARGO          CLEAR     78  72  81 SE17G26   29.71F
6HR MIN TEMP:  78; 6HR MAX TEMP:  88;

JAMESTOWN      MOCLDY    76  73  91 SE14      29.66F
$$




USA.gov is the U.S. government's official web portal to all federal, state and local government web resources and services.